Location: Lafig�re
(44.4503°N, 4.0357°E)
Time: 16:19:45
(UTC+00:00)

Cosmos 1674 - Pass Details

Date: 24 September 2020
Orbit: 494 x 518 km, 82.5° (Epoch: 25 October)

Event Time Altitude Azimuth Distance (km) Brightness Sun altitude
Rises 18:50:56 0° 355° (N) 2,652 6.6 -13.9°
Reaches altitude 10° 18:53:07 10° 359° (N) 1,758 5.6 -14.3°
Maximum altitude 18:56:56 58° 80° (E) 606 2.7 -15.0°
Enters shadow 18:59:52 16° 157° (SSE) 1,407 4.5 -15.5°
